Tracking 28794 objects as of 22-Apr-2024
HD Live streaming from Space Station
objects crossing your sky now

JILIN-01 GAOFEN 3J

Track JILIN-01 GAOFEN 3J now!
10-day predictions


NORAD ID: 46462
Int'l Code: 2020-065J
Perigee: 492.8 km
Apogee: 508.5 km
Inclination: 97.3 °
Period: 94.5 minutes
Semi major axis: 6871 km
RCS: Unknown
Launch date: September 15, 2020
Source: People's Republic of China (PRC)
Launch site: Yellow Sea Launch Area, China (YSLA)
Your satellite tracking list
Your tracking list is empty




NASA's NSSDC Master Catalog

Two Line Element Set (TLE):
1 46462U 20065J   24113.19066319  .00028322  00000-0  11640-2 0  9992
2 46462  97.3478 159.2043 0011407  70.8611 289.3860 15.24080039198907
Source of the keplerian elements: AFSPC